Location: Cran-Gévrier
(45.9039°N, 6.1012°E)
Time: 04:55:11
(UTC+00:00)

Cosmos 1340 - Pass Details

Date: 09 February 2023
Orbit: 478 x 483 km, 81.2° (Epoch: 29 March)

Event Time Altitude Azimuth Distance (km) Brightness Sun altitude
Rises 17:43:34 0° 348° (NNW) 2,559 6.2 -9.4°
Reaches altitude 10° 17:45:41 10° 348° (NNW) 1,676 5.3 -9.7°
Maximum altitude 17:49:21 84° 261° (W) 495 2.6 -10.3°
Drops below altitude 10° 17:53:01 10° 173° (S) 1,669 5.3 -11.0°
Sets 17:55:06 0° 172° (S) 2,548 6.2 -11.3°
